Location: East Guldeford
(50.9500°N, 0.7500°E)
Time: 09:53:43
(UTC+00:00)

Resurs 01 Rocket - Pass Details

Date: 12 May 2021
Orbit: 633 x 645 km, 97.9° (Epoch: 16 June)

Event Time Altitude Azimuth Distance (km) Brightness Sun altitude
Rises 22:03:31 0° 222° (SW) 2,946 4.8 -16.6°
Reaches altitude 10° 22:07:32 10° 259° (W) 2,042 4.4 -16.9°
Maximum altitude 22:08:44 11° 275° (W) 1,980 4.5 -17.0°
Drops below altitude 10° 22:09:56 10° 291° (WNW) 2,045 4.9 -17.1°
Sets 22:13:59 0° 328° (NNW) 2,960 6.7 -17.3°
